Regional Weather Roundup
Issued by NWS

Home | Current Version | Previous Version | Text Only | Print | Product List | Glossary Off
Versions: 1 2 3 4 5 6 7 8 9 10 11 12 13 14 15 16 17 18 19 20 21 22 23 24 25 26 27 28 29 30 31 32 33 34 35 36 37 38 39 40 41 42 43 44 45 46 47 48 49 50

000
ASUS43 KLMK 020802
RWRKY
KENTUCKY REGIONAL WEATHER ROUNDUP
NATIONAL WEATHER SERVICE LOUISVILLE KY
400 AM EDT THU JUL 02 2015

NOTE "FAIR" INDICATES FEW OR NO CLOUDS BELOW 12,000 FEET
WITH NO SIGNIFICANT WEATHER AND/OR OBSTRUCTIONS TO VISIBILITY.

KYZ001>023-026-027-061>063-070>075-020900-
WESTERN AND SOUTH CENTRAL KENTUCKY

CITY           SKY/WX    TMP DP  RH WIND       PRES   REMARKS
PADUCAH        TSTM      71  68  90 NE5       29.86F FOG
HENDERSON      CLOUDY    72  66  83 SW7       29.87R
OWENSBORO      CLOUDY    71  71 100 SW7       29.88R
HOPKINSVILLE   CLOUDY    71  70  95 S8        29.87F
BOWLING GREEN  CLOUDY    71  68  90 S7        29.91R
GLASGOW        NOT AVBL
$$

KYZ024-025-028>034-038-045-046-053-020900-
NORTH CENTRAL KENTUCKY

CITY           SKY/WX    TMP DP  RH WIND       PRES   REMARKS
LOUISVILLE/SDF LGT RAIN  73  70  90 CALM      29.86F
LOUISVILLE/LOU LGT RAIN  72  70  93 SE3       29.86F FOG
FORT KNOX      CLOUDY    69  67  95 S3        29.87R
$$

KYZ035>037-039>044-047>052-055>060-089>105-020900-
NORTHEAST KENTUCKY

CITY           SKY/WX    TMP DP  RH WIND       PRES   REMARKS
LEXINGTON      LGT RAIN  69  67  93 S3        29.90F FOG
COVINGTON      CLOUDY    69  66  90 CALM      29.90F FOG
FRANKFORT      CLOUDY    69  67  93 CALM      29.88F FOG
$$

KYZ054-064>069-076>088-106>120-020900-
SOUTHEAST KENTUCKY

CITY           SKY/WX    TMP DP  RH WIND       PRES   REMARKS
JACKSON        CLOUDY    68  65  90 CALM      29.95F
LONDON         PTCLDY    65  61  87 CALM      29.95F FOG
SOMERSET       NOT AVBL
MIDDLESBORO    NOT AVBL
MONTICELLO     PTSUNNY   66  66 100 CALM      29.96F FOG
$$



USA.gov is the U.S. government's official web portal to all federal, state and local government web resources and services.